Wind_Speed
10 10 9 9 10 10 10 10 10 11 11 12 12 13 13 13 13 13 13 14 15 15 16 17 18 20 20 20 21 20 20 20 20 17 18 18 14 15 13 11 9 7 8 6 8 10 11 12 13 14 12 9 8 7 10 9 7 6 5 6 7 8 9 11 7 3 3 5 4 1 4 8 8 10 7 5 6 7 9 11 17 16 17 17 18 24 23 23
10 10 10 9 9 10 10 10 10 11 11 12 13 13 13 13 13 13 14 14 15 15 16 17 18 20 20 19 19 18 20 22 21 20 24 21 15 18 17 15 13 9 10 11 12 12 12 11 12 13 9 7 7 8 9 8 8 7 6 7 8 8 10 10 2 7 7 4 3 2 3 7 4 10 7 6 9 10 8 9 14 15 17 17 17 20 20 20
10 10 10 9 10 10 10 10 11 11 12 13 13 14 13 13 13 13 14 14 15 16 16 16 18 20 20 18 18 16 19 21 18 18 22 19 17 21 20 18 17 12 12 14 15 13 13 12 12 12 9 8 7 9 10 8 8 8 7 7 9 11 13 10 2 6 7 5 2 1 5 5 1 6 8 11 11 9 9 9 12 13 14 15 14 14 17 17
10 10 10 10 10 10 10 11 12 12 13 14 14 14 13 13 13 13 13 14 14 15 16 16 18 20 19 17 16 15 16 16 12 7 8 12 16 22 23 21 18 15 14 16 16 15 15 14 13 12 10 8 8 10 9 8 7 7 8 8 11 11 11 8 3 3 1 3 4 2 4 7 4 1 4 12 10 6 8 10 11 15 16 14 12 11 13 13
10 9 9 10 10 10 11 12 13 13 14 14 14 14 14 13 13 13 13 14 14 15 16 17 18 19 19 17 14 13 12 8 0 6 8 9 14 19 23 23 20 18 16 16 17 16 16 15 13 11 9 8 9 9 9 10 7 7 9 12 16 11 8 6 3 6 2 1 5 3 4 6 5 3 4 11 7 3 6 12 13 17 17 15 14 11 11 10
10 9 9 10 10 11 11 12 13 13 14 14 14 14 13 12 12 13 13 14 14 15 16 16 18 20 19 15 12 11 9 3 6 10 9 7 11 12 13 16 18 19 16 16 16 16 15 14 13 10 8 9 11 10 9 11 10 7 8 13 17 13 10 7 2 2 1 2 8 6 4 4 3 6 7 9 6 9 7 15 18 18 15 15 14 11 11 9
10 10 10 9 10 11 12 13 13 14 14 14 14 14 13 13 12 12 12 13 14 14 15 16 18 19 18 16 12 10 9 9 5 5 5 4 8 7 5 6 13 18 17 17 17 15 14 14 13 10 9 10 11 12 11 11 12 10 9 11 13 12 11 7 2 2 2 8 12 6 3 3 8 8 9 9 11 19 18 19 19 17 15 14 12 9 9 8
10 10 10 10 10 12 12 13 14 14 14 14 14 14 14 13 12 12 12 13 13 14 15 15 17 17 16 15 11 8 10 16 16 7 4 5 10 7 3 4 9 16 19 20 19 16 14 15 14 11 10 10 11 12 12 11 12 12 11 11 11 11 11 10 5 3 5 10 9 6 4 8 12 8 11 11 13 21 19 18 18 18 17 14 11 9 8 7
11 10 10 10 11 12 13 13 14 14 14 14 14 14 14 13 12 12 12 13 13 14 15 15 17 16 14 12 9 7 9 18 19 12 7 6 11 9 6 7 11 14 17 20 20 18 14 13 14 13 11 12 12 12 12 10 9 11 13 13 12 10 9 11 10 6 6 8 8 8 8 11 12 8 9 10 12 19 18 16 16 15 15 13 11 9 7 7
11 10 11 11 11 12 12 13 14 14 14 14 14 13 14 13 12 12 12 13 12 13 14 13 15 15 14 11 9 8 9 16 17 13 9 6 10 11 10 11 13 15 16 18 20 20 16 13 14 13 12 12 11 12 12 10 9 11 13 14 15 12 8 10 11 9 8 8 10 11 11 12 10 6 7 9 11 17 18 15 16 15 13 12 10 9 7 7
12 11 12 11 11 11 12 13 13 14 14 14 14 13 13 13 12 11 11 12 12 13 13 13 14 14 13 11 9 7 6 7 8 9 8 7 9 11 12 13 13 15 16 17 20 21 20 17 14 10 9 10 10 13 12 11 12 10 6 10 14 15 11 11 11 10 10 10 12 12 12 12 9 8 9 12 11 14 16 15 17 15 13 12 11 9 7 6
13 12 12 12 11 11 12 13 13 13 14 13 13 13 13 12 12 11 11 12 13 13 12 12 12 12 13 11 11 15 13 7 4 5 6 8 12 13 13 14 15 16 15 15 18 22 22 20 17 13 9 8 10 10 9 10 14 10 6 8 12 13 13 13 11 11 12 10 12 12 11 12 11 12 13 15 12 12 16 16 17 14 12 12 10 9 6 6
13 13 13 12 12 12 13 13 13 13 13 13 13 13 13 12 11 11 11 11 12 12 12 12 11 12 12 8 12 22 25 20 16 11 7 7 11 13 13 14 13 14 16 16 17 21 22 21 19 16 12 10 9 7 5 7 12 12 11 9 9 10 12 14 11 11 14 10 12 11 9 10 12 15 16 14 13 14 15 15 15 13 12 12 8 7 6 6
14 13 13 13 12 12 13 14 13 13 13 13 13 13 13 13 13 12 13 13 13 13 12 12 11 11 10 9 15 25 28 27 23 18 14 11 11 12 13 14 13 13 15 17 18 18 20 22 19 15 13 12 10 8 7 7 9 11 11 8 7 7 9 14 13 13 14 10 14 13 8 8 12 18 16 13 13 14 13 12 13 11 7 10 10 9 8 5
15 14 13 13 13 12 13 14 13 13 13 13 13 13 14 14 15 15 15 16 15 13 12 12 12 10 8 10 17 20 24 28 25 21 18 16 15 13 13 15 14 15 15 16 17 17 18 20 16 12 10 11 12 11 8 7 8 9 9 8 8 8 9 14 17 15 14 12 15 15 8 7 13 16 13 13 12 12 12 12 16 13 5 6 8 7 9 7
15 15 14 13 13 12 12 13 13 13 13 13 13 13 15 15 16 16 16 15 14 13 12 12 13 12 7 8 14 15 18 24 25 24 21 19 18 15 15 15 13 14 15 16 16 15 16 16 13 11 9 10 11 10 6 6 8 8 9 8 9 10 10 11 17 18 17 14 14 15 10 8 13 15 15 12 12 11 11 12 18 15 8 6 6 5 8 9
15 15 14 13 12 12 11 12 13 13 12 13 14 16 17 16 15 16 16 15 14 13 13 13 11 11 9 11 15 15 16 21 23 25 24 21 20 18 16 14 12 13 14 14 15 15 14 13 9 9 9 9 10 9 7 8 8 8 8 8 10 12 11 10 14 17 19 17 13 15 15 10 8 16 17 13 13 12 10 14 20 15 10 8 9 7 6 7
15 14 14 13 12 12 11 11 12 12 13 13 15 17 17 15 14 14 14 13 11 10 12 14 11 6 8 14 17 15 16 20 22 24 23 22 21 20 18 14 11 12 12 11 14 13 10 9 7 8 9 10 11 10 9 9 9 9 9 8 10 11 13 13 12 16 19 18 14 15 17 10 6 13 14 14 14 12 10 14 18 15 12 7 6 7 9 6
14 14 14 13 12 11 11 11 11 11 12 13 15 17 17 13 12 14 14 12 9 7 7 9 11 6 4 10 20 21 18 18 20 21 23 24 22 21 20 16 12 13 13 9 12 13 8 7 8 9 10 12 13 12 12 13 13 13 12 11 11 10 12 15 12 17 19 17 14 15 17 12 9 10 12 13 14 12 12 12 16 12 9 6 6 7 9 7
14 14 14 12 12 11 11 11 11 11 11 12 14 14 12 8 7 8 11 13 12 11 10 10 17 15 14 12 13 20 19 17 19 20 23 24 22 20 18 15 13 12 13 11 12 12 10 9 11 12 13 15 16 16 16 17 17 14 12 11 13 12 11 13 13 19 18 14 13 16 16 13 11 10 10 10 11 11 11 11 15 12 9 9 7 7 9 8
14 13 12 11 11 11 11 11 11 11 11 12 12 10 8 8 5 2 5 13 17 19 18 15 18 19 20 21 14 13 13 12 15 18 21 24 22 18 14 14 14 11 13 14 12 11 11 11 13 15 16 17 18 17 16 18 20 17 12 10 11 12 11 13 15 21 18 13 12 17 16 13 12 9 9 7 6 6 4 5 11 15 15 12 11 10 9 9
13 12 12 11 11 11 11 11 11 11 11 13 13 12 12 13 12 8 3 8 14 21 21 21 21 18 21 26 24 16 8 9 14 15 19 22 20 16 14 15 15 12 14 15 11 11 12 12 15 17 17 17 17 18 17 18 19 16 12 9 10 11 10 12 14 19 18 11 11 17 13 11 12 9 9 9 7 5 5 8 9 17 18 12 12 11 10 11
14 12 11 10 10 11 11 11 11 11 13 15 16 16 16 17 18 13 7 6 9 16 19 20 21 18 20 23 21 16 10 10 13 14 19 20 17 16 15 15 16 14 15 16 13 11 10 12 16 17 17 18 18 17 18 16 14 13 11 9 9 11 10 9 12 17 18 11 11 16 12 9 10 9 9 8 8 9 16 19 17 18 16 13 14 12 11 12
14 11 10 10 10 10 10 11 12 14 17 18 20 21 19 19 19 13 7 7 9 12 16 20 19 16 20 20 15 13 11 11 13 15 21 20 16 15 15 16 17 15 15 19 19 15 12 12 16 18 18 19 18 16 17 13 10 12 12 12 10 12 14 12 10 13 15 12 14 14 10 8 9 10 9 7 8 10 15 17 17 16 14 15 15 13 13 12
13 10 9 10 9 9 10 11 14 18 18 17 21 23 20 18 16 11 6 7 9 10 15 19 16 15 22 21 16 13 12 13 14 15 20 22 18 15 13 13 13 14 18 22 21 15 13 14 16 19 19 20 19 16 17 14 10 11 13 15 15 12 17 15 10 10 9 10 15 15 8 6 9 11 10 9 8 10 12 12 14 13 12 13 13 13 12 12
12 9 8 8 8 8 8 8 12 16 14 17 21 20 18 17 10 6 5 6 8 9 13 15 12 15 21 19 15 14 13 13 15 16 20 23 21 15 12 10 9 14 18 18 14 9 11 16 17 19 20 20 19 15 17 16 10 8 11 16 19 16 16 15 14 12 8 9 13 16 8 5 8 10 11 11 10 13 12 11 12 10 10 11 10 10 10 10
11 9 7 8 8 8 7 6 9 10 9 13 16 11 12 13 6 3 4 6 7 9 15 14 10 17 21 17 17 15 11 10 13 17 18 23 22 16 14 13 10 13 14 11 10 8 13 18 18 19 20 18 16 13 15 17 12 8 11 16 19 17 16 14 13 13 8 9 11 15 11 6 6 11 14 14 13 13 11 10 9 9 10 10 9 10 10 10
10 8 8 9 9 11 12 11 12 10 7 6 5 6 7 7 5 4 4 4 2 6 12 13 13 19 20 19 22 17 10 10 13 15 16 24 23 15 15 17 14 15 16 12 10 10 14 17 18 20 18 14 13 13 15 17 14 10 12 15 16 18 17 15 11 12 9 9 10 13 13 7 5 11 14 16 15 12 11 10 8 8 9 10 10 11 11 11
9 8 9 10 10 13 16 15 15 15 11 6 1 5 6 5 3 3 4 5 2 7 9 11 15 17 17 18 22 19 13 11 12 12 15 22 22 16 12 16 17 17 19 16 12 11 13 15 17 16 14 12 13 16 17 18 14 12 14 13 13 17 15 14 11 10 10 9 9 13 14 8 6 10 13 13 13 12 11 10 9 9 9 9 10 10 10 10
8 8 10 10 10 12 14 16 20 19 13 6 2 3 3 3 3 4 6 6 4 8 9 10 13 15 17 19 19 20 18 14 12 14 14 16 21 18 12 14 15 13 16 17 16 15 14 14 16 13 13 13 14 16 18 17 14 13 14 13 12 13 11 10 9 8 8 7 11 15 15 12 8 8 11 10 12 15 13 11 10 10 9 10 9 9 9 8
8 10 11 11 11 11 9 11 15 16 13 7 5 6 4 3 4 5 7 6 4 8 10 10 14 15 20 20 16 18 20 17 14 17 14 13 17 17 12 12 13 10 12 13 15 18 17 15 12 12 14 15 14 14 16 16 16 14 12 10 10 8 7 8 7 7 6 6 12 17 17 16 10 4 7 11 14 18 16 13 13 12 11 10 8 9 8 7
10 10 11 12 14 13 12 10 8 8 12 10 7 6 4 4 6 6 7 5 2 8 10 12 14 15 20 21 17 18 20 16 15 18 16 12 13 15 14 12 10 10 12 12 13 15 14 14 12 13 14 15 13 12 13 14 14 13 11 9 9 7 6 7 7 7 7 8 13 17 17 14 5 4 2 8 16 18 16 14 14 14 12 11 9 9 8 7
9 9 10 13 15 15 17 16 10 4 6 9 6 4 3 5 7 9 10 4 4 8 9 12 15 15 19 19 15 19 19 16 16 18 18 15 13 15 17 16 15 13 11 12 13 12 11 13 16 16 14 15 15 12 11 11 12 13 12 10 9 8 7 8 8 7 8 10 14 18 15 7 3 7 10 14 17 16 17 16 14 14 13 11 10 8 7 7
7 8 10 12 15 16 17 16 9 3 4 7 6 5 5 6 7 11 13 6 3 7 8 10 15 16 18 16 14 17 16 15 18 18 17 16 13 13 16 18 20 16 10 11 11 11 13 12 15 16 11 13 16 14 11 12 12 13 12 11 10 9 8 7 7 7 8 10 13 15 9 2 3 5 11 16 16 16 16 15 14 14 13 11 9 8 8 7
6 9 11 12 15 17 16 13 9 6 5 5 5 6 8 8 5 6 8 6 2 6 8 10 14 15 16 15 15 19 16 13 18 18 15 15 13 14 15 16 21 18 11 10 8 10 15 12 13 16 13 15 18 16 14 13 11 11 11 11 10 10 9 6 6 6 4 5 7 6 1 4 5 8 12 14 15 16 15 15 15 13 12 11 9 7 7 7
9 10 11 13 15 16 15 13 11 9 6 4 6 7 9 7 3 3 3 6 4 3 7 9 13 13 12 12 13 20 19 14 17 16 12 15 15 16 17 14 19 20 14 9 6 9 12 10 14 18 17 20 20 17 16 13 10 8 10 12 11 11 11 4 5 5 3 3 3 4 6 5 6 6 10 14 14 15 15 15 14 13 13 11 8 7 7 6
10 10 10 14 17 15 15 14 12 11 7 4 6 7 7 7 6 7 5 6 8 6 6 6 10 10 11 11 11 19 21 16 16 14 11 14 14 16 19 17 19 22 17 12 7 7 9 9 15 20 19 19 19 18 18 15 11 8 9 12 11 11 12 5 3 5 4 5 4 7 9 9 7 4 8 14 14 14 14 14 14 14 13 11 9 8 7 7
10 8 10 15 17 15 16 16 15 11 6 5 8 8 7 8 8 9 8 7 9 7 3 4 6 8 11 12 11 18 21 14 14 14 11 11 12 16 20 16 19 24 22 17 9 8 10 8 11 18 17 16 18 16 15 14 16 13 10 11 9 8 9 5 3 5 6 7 5 8 11 9 6 6 11 15 14 14 14 14 14 13 12 11 10 9 8 7
10 7 5 11 17 17 18 19 15 9 5 6 8 7 7 8 9 10 9 8 10 8 4 1 4 7 9 11 12 16 19 15 13 12 11 9 10 17 20 14 17 24 23 19 11 7 9 7 7 16 17 14 13 11 10 12 16 15 11 11 9 6 6 6 5 5 7 7 6 5 7 5 3 7 14 16 16 16 15 13 12 12 11 11 10 8 7 7
9 5 1 9 17 19 21 18 11 7 6 7 7 6 7 8 9 11 10 10 10 6 2 2 2 6 7 8 11 14 16 16 14 11 10 11 10 16 20 16 16 21 22 21 15 7 6 6 4 12 16 13 9 9 12 13 14 12 10 11 11 7 6 7 6 7 7 6 5 5 5 2 4 3 9 14 16 16 15 13 11 11 11 11 10 9 7 7
5 2 1 9 17 21 20 13 7 6 6 7 7 8 8 7 9 11 12 13 11 3 3 1 4 6 5 6 9 13 14 13 14 11 8 11 11 10 16 18 17 19 19 18 15 8 4 4 4 8 11 11 11 13 16 17 16 13 9 10 12 9 7 7 7 9 8 7 6 4 4 4 4 4 1 9 14 15 15 15 13 11 12 11 10 9 8 7
3 1 3 9 17 20 15 7 5 6 6 6 7 8 7 5 8 12 12 13 11 5 5 3 4 5 4 8 11 10 13 11 12 12 9 12 13 9 14 19 19 18 15 12 13 10 3 3 5 7 9 11 14 17 17 19 18 16 12 12 12 10 8 7 7 7 8 9 8 2 3 4 4 5 3 7 11 14 15 16 14 11 11 11 10 10 9 8
2 2 5 8 15 16 10 5 6 7 6 7 9 9 7 4 7 11 12 10 7 4 2 2 3 4 5 9 12 9 10 11 13 13 11 12 14 11 15 20 20 18 15 10 11 10 4 3 6 7 8 11 15 16 16 18 18 15 14 13 12 12 12 10 7 4 4 7 6 2 4 3 5 5 7 12 13 15 14 14 15 12 10 11 11 10 9 9
2 2 4 6 14 14 7 5 6 5 6 8 10 10 8 6 9 10 8 8 5 1 3 4 2 3 7 9 10 11 10 9 12 15 11 10 12 12 16 21 20 16 12 8 8 8 5 5 7 8 7 8 10 11 14 17 16 11 11 14 15 16 16 13 9 4 2 8 8 2 4 4 2 3 9 15 16 15 14 13 14 12 11 10 10 9 9 9
2 1 1 6 12 10 5 5 4 4 6 8 10 10 7 6 9 7 5 9 8 4 4 4 2 4 9 10 8 11 13 9 7 12 11 9 10 10 15 19 18 14 11 11 10 9 7 6 6 7 8 8 9 9 10 12 12 10 12 17 19 19 17 11 7 5 5 8 8 2 6 7 6 8 13 15 15 15 13 13 13 12 11 11 10 9 9 10
2 1 3 5 7 6 6 6 5 6 6 7 8 8 6 6 6 3 3 7 7 5 6 4 2 5 9 9 9 9 10 12 8 11 12 9 8 8 13 16 18 16 15 15 13 9 5 6 7 8 8 6 6 10 11 11 12 12 15 18 18 18 17 11 6 6 7 6 1 3 12 14 11 12 15 15 15 15 13 12 12 12 11 11 10 9 9 9
1 2 4 5 5 5 6 7 8 8 6 4 5 6 6 7 5 2 2 4 4 5 5 5 5 7 8 7 7 6 9 12 9 13 10 9 10 9 13 16 15 13 13 14 13 9 4 7 8 6 5 3 4 8 13 15 14 14 15 16 16 17 17 12 3 1 2 3 2 6 15 17 12 13 15 14 14 13 12 12 12 11 11 11 10 10 10 10
2 2 3 4 3 3 4 7 9 9 8 6 5 7 8 8 7 5 4 4 6 5 4 5 6 8 9 7 5 4 9 11 4 10 5 6 11 9 12 15 11 8 11 13 11 7 5 7 7 4 2 4 3 5 8 9 12 14 14 13 14 15 13 9 3 9 6 3 8 12 16 15 11 12 13 12 11 11 12 12 11 11 12 12 11 11 11 10
2 3 1 1 3 3 5 6 6 8 9 5 5 7 8 8 9 8 5 5 6 5 5 6 6 7 9 8 6 4 5 6 1 6 4 1 6 7 9 11 10 7 11 14 9 6 5 5 6 6 3 5 4 1 4 5 5 12 17 15 11 3 3 5 8 14 13 11 15 18 17 13 10 11 11 9 8 9 9 9 10 12 12 12 12 12 11 10
2 2 3 3 3 4 5 5 4 6 5 2 4 6 7 8 9 8 6 6 5 5 5 7 9 9 7 8 7 6 5 5 3 3 4 2 3 6 6 6 8 9 11 11 8 5 4 4 5 5 3 5 6 5 3 5 6 1 6 5 3 9 14 13 13 16 16 14 16 21 19 11 8 10 11 9 7 7 8 10 10 11 11 12 12 12 11 10
3 2 3 3 3 4 5 4 3 4 3 2 4 5 5 7 8 7 7 9 9 9 7 8 10 8 6 7 7 6 5 2 6 3 5 6 1 1 2 4 6 10 10 8 6 6 5 4 5 5 2 6 8 8 9 10 11 11 10 12 11 10 10 10 7 6 10 16 17 16 12 8 8 11 12 10 9 8 9 11 10 9 11 12 12 11 11 10
7 4 5 4 2 3 4 3 2 3 3 3 4 5 6 7 8 8 7 7 9 12 11 10 9 6 5 5 5 6 3 5 4 3 3 3 4 5 4 6 6 8 10 5 3 5 7 5 4 4 3 6 9 12 12 10 7 7 8 9 8 9 12 11 8 7 6 13 10 6 8 11 13 14 14 13 10 9 9 9 9 9 10 11 11 11 10 10
Wind_Direction
325 326 326 326 324 323 326 326 327 326 324 322 320 320 319 317 319 319 318 318 319 319 319 319 320 318 317 319 319 321 326 319 305 293 262 251 243 245 247 218 224 247 215 214 237 222 207 211 222 225 224 227 224 234 236 225 225 229 226 242 243 236 241 248 255 278 289 102 91 342 171 220 200 170 225 219 168 161 151 106 80 78 75 71 98 120 129 134
323 323 323 321 320 320 320 323 324 322 322 320 318 317 316 315 315 315 314 316 316 317 318 318 319 317 316 317 319 326 328 313 293 280 264 255 243 240 239 229 239 243 215 223 236 225 213 212 213 214 218 226 214 217 230 210 207 232 227 230 239 239 245 250 302 22 16 59 75 32 226 247 201 171 182 195 183 157 149 123 96 88 92 93 104 117 125 132
316 318 319 317 317 318 319 322 321 319 317 316 316 314 312 313 315 312 311 314 314 315 316 316 318 317 315 315 319 330 324 307 288 271 263 254 236 232 234 233 234 231 219 222 232 230 224 219 208 207 218 227 218 212 217 195 189 224 234 231 238 242 253 260 13 41 29 11 350 73 228 237 196 176 167 196 197 167 174 152 123 112 111 110 112 120 129 140
310 311 313 313 314 315 317 317 317 317 314 311 312 313 310 308 311 313 314 315 313 314 314 315 318 316 315 315 318 329 319 297 281 261 240 227 218 222 228 232 230 227 224 228 240 245 239 230 213 209 222 228 226 220 213 195 185 210 224 239 242 238 261 288 333 266 343 1 318 7 218 216 218 198 185 204 190 184 181 148 143 134 123 121 124 132 138 151
304 304 307 308 309 311 313 313 315 314 313 311 310 312 310 305 306 308 310 312 312 312 313 315 316 316 315 314 318 324 309 283 300 102 131 171 190 208 222 228 230 224 220 230 245 251 244 239 226 212 223 237 229 220 214 207 205 220 224 239 252 259 284 303 311 261 219 162 271 296 237 223 206 179 243 221 179 243 205 155 145 127 123 131 141 149 147 160
299 300 300 302 305 307 309 310 312 311 311 311 311 314 310 306 306 304 305 307 308 310 312 314 315 316 314 313 314 303 279 263 77 102 123 145 164 184 205 217 224 220 218 228 238 244 237 233 234 218 215 238 239 229 214 207 209 228 231 235 251 268 282 285 275 253 53 244 249 257 303 349 225 207 245 237 109 54 72 117 118 108 109 122 137 150 150 164
293 295 295 298 301 302 305 306 308 307 308 309 310 313 312 310 308 305 308 305 307 310 310 312 315 316 318 323 308 270 245 265 284 143 154 180 169 163 163 199 209 204 210 222 226 233 231 225 228 225 218 227 241 241 225 212 212 225 243 241 246 253 259 277 300 151 191 245 250 255 322 298 233 217 218 220 102 86 88 102 111 113 117 123 134 149 152 162
287 289 291 294 296 299 302 302 304 304 305 306 306 308 308 310 308 305 308 306 306 307 309 313 315 316 321 327 305 253 230 254 256 212 200 205 184 185 182 192 195 193 204 215 220 225 227 224 223 225 226 225 231 239 235 224 218 222 241 252 252 243 236 248 245 173 206 231 244 258 261 231 231 229 207 194 113 105 108 112 122 129 136 136 137 148 156 158
281 284 287 291 293 296 300 301 303 302 303 304 304 305 303 304 304 302 304 305 303 302 307 309 311 315 312 307 287 266 241 246 245 211 189 183 182 200 213 196 186 193 206 214 219 225 226 223 222 225 229 233 232 236 239 233 224 219 227 242 255 253 234 240 236 213 225 223 224 231 234 228 229 245 217 183 131 120 122 129 132 132 135 133 136 149 154 155
275 279 284 288 291 295 300 302 302 301 302 302 303 302 300 300 299 299 299 301 302 302 304 305 309 312 303 285 260 259 251 246 241 205 182 184 184 193 209 206 190 194 210 215 219 224 227 224 222 228 235 243 242 242 241 234 237 230 223 230 242 253 241 238 239 223 229 229 223 219 227 228 208 221 209 157 142 133 130 141 141 135 133 133 140 145 149 158
273 276 281 284 288 293 299 303 304 303 302 301 302 300 298 297 295 296 297 296 298 299 301 303 307 305 295 281 252 239 235 235 228 201 201 216 207 201 210 212 199 200 212 216 220 223 228 230 228 230 232 241 251 254 253 246 251 248 234 236 237 245 242 231 228 222 225 225 222 216 223 222 181 211 210 144 148 152 142 146 145 143 139 142 145 143 157 154
273 272 277 281 285 291 297 302 302 301 301 300 300 298 297 297 294 293 292 293 295 296 299 299 301 298 286 275 249 236 234 248 273 230 215 218 221 220 219 218 209 208 214 217 220 222 227 231 231 234 227 227 238 249 259 254 255 249 223 239 241 236 238 233 218 214 222 210 211 215 222 216 180 220 218 145 158 175 153 156 151 145 141 141 142 146 156 139
269 269 273 276 280 286 294 298 298 299 300 298 297 296 295 295 291 289 289 290 289 290 294 293 294 289 280 271 251 243 245 265 286 275 250 241 233 225 222 226 221 216 220 224 223 221 226 231 231 237 238 234 234 243 274 257 250 246 226 233 245 232 229 228 217 214 219 199 195 209 226 209 176 219 221 151 168 186 165 168 151 143 148 138 138 145 141 132
265 267 268 269 274 281 289 295 296 296 296 296 296 294 291 287 285 283 284 284 283 286 287 286 285 277 268 263 260 253 251 265 276 266 252 252 244 232 222 221 227 229 228 231 231 224 222 228 232 238 239 244 253 250 253 247 235 234 231 230 235 242 226 210 208 212 216 204 194 204 232 203 176 215 213 148 174 189 167 160 124 116 139 138 152 155 141 144
262 263 263 266 270 276 285 291 293 294 295 294 293 290 285 283 285 285 284 282 278 277 279 279 265 256 268 259 258 259 250 254 261 253 245 240 237 236 222 214 220 227 228 228 232 233 223 222 228 234 234 240 257 253 236 240 231 216 224 227 218 237 238 203 197 204 211 209 196 201 230 204 189 203 177 148 182 184 171 159 124 120 132 127 140 147 141 140
260 261 262 264 268 273 280 288 292 292 291 292 290 287 283 283 287 287 283 278 272 263 263 271 243 228 263 262 252 255 235 234 241 239 237 233 230 229 221 218 218 218 224 223 225 235 227 217 220 228 232 229 240 247 235 234 228 209 215 230 218 220 244 215 185 192 209 211 192 196 227 225 198 175 145 156 177 176 184 151 125 130 137 121 133 164 149 129
257 259 261 262 267 270 275 283 288 288 289 290 289 288 287 286 287 287 282 270 265 255 241 254 244 224 254 274 270 259 226 219 223 223 226 228 225 224 221 219 216 212 216 217 217 227 223 213 211 214 226 228 224 224 227 227 218 208 207 226 232 216 235 229 175 180 206 210 191 194 227 245 186 153 149 170 177 189 197 138 128 138 138 151 170 165 115 96
255 256 259 260 264 267 272 278 281 284 286 286 288 291 289 285 280 278 271 250 244 248 236 245 254 236 244 247 248 242 221 215 214 211 215 218 217 218 220 218 209 204 208 210 210 217 212 201 201 204 213 221 222 215 215 221 212 208 203 214 237 223 229 231 179 173 199 205 192 196 227 238 149 148 164 182 188 200 201 142 134 141 139 149 159 119 83 73
255 256 257 258 262 266 270 273 276 281 282 285 293 295 291 283 272 260 242 216 201 217 223 212 207 216 288 234 220 226 227 212 204 205 206 205 206 211 217 217 206 200 206 201 195 201 195 186 203 211 210 210 216 215 214 226 224 211 205 210 227 225 228 232 190 168 188 201 194 202 225 211 161 166 176 187 194 200 206 161 129 128 124 75 50 77 85 86
248 251 254 255 259 265 269 269 272 274 276 283 293 296 283 251 237 239 219 206 204 217 227 199 193 220 278 282 230 222 229 214 196 198 202 196 192 201 211 210 202 202 208 198 186 191 191 196 208 210 211 208 212 217 219 231 240 229 211 208 225 230 227 226 189 161 182 206 197 210 221 191 168 177 176 188 192 195 205 163 131 131 120 92 84 86 87 83
239 242 248 250 258 264 267 268 269 269 269 273 281 281 252 227 238 283 198 210 219 227 239 231 209 219 253 272 268 228 215 209 197 193 196 190 184 193 201 200 198 199 206 202 190 189 200 210 212 209 212 211 210 216 221 231 244 248 232 209 218 233 230 223 189 158 177 209 197 211 217 174 166 173 163 179 184 184 190 147 143 136 123 119 118 108 101 93
235 234 240 245 255 262 266 268 265 264 262 261 262 255 249 262 285 303 262 231 227 227 239 245 236 234 245 261 272 260 220 196 199 193 188 184 183 191 188 192 202 195 196 203 195 191 207 217 212 208 212 216 213 213 219 229 239 250 250 227 215 227 232 228 201 164 172 207 198 205 208 160 158 162 155 173 180 156 85 66 102 116 117 127 122 114 111 96
232 227 236 241 252 261 264 268 267 263 256 251 249 247 250 262 276 286 278 275 254 229 229 239 243 244 244 251 260 254 230 208 204 195 189 185 186 195 190 190 202 198 193 201 202 197 206 213 211 209 208 215 218 212 213 225 234 241 251 247 225 211 213 227 211 176 169 196 208 198 191 153 152 158 154 158 151 111 71 64 78 94 104 111 107 104 99 91
235 226 232 239 250 259 263 270 269 256 248 247 248 249 253 260 271 284 279 270 267 242 230 228 229 235 238 241 238 225 221 222 216 199 191 190 187 194 200 194 198 203 197 201 208 211 212 203 204 210 208 210 218 213 209 217 228 230 236 249 238 205 209 227 213 176 164 192 221 206 177 153 164 171 157 148 150 117 79 75 84 85 89 90 87 85 83 86
241 229 231 242 248 255 267 272 262 249 243 246 248 246 249 257 267 274 280 270 259 254 244 230 220 222 227 233 230 218 218 225 228 207 187 192 193 188 201 201 197 207 201 201 209 216 216 201 196 208 209 207 214 214 209 211 220 225 226 240 249 225 216 219 185 165 173 194 219 218 182 149 180 182 158 150 146 109 83 84 86 81 85 84 82 86 85 86
245 235 232 243 247 254 261 258 256 251 242 241 242 237 232 234 242 250 260 267 256 241 223 213 209 202 206 220 219 211 220 221 227 218 185 187 199 194 200 202 197 210 204 200 210 218 216 204 195 205 209 206 212 215 207 208 217 222 214 229 250 250 233 214 163 162 208 204 212 223 206 152 182 189 172 157 127 99 87 83 83 79 79 78 81 87 87 88
244 239 237 245 244 238 232 255 279 266 242 239 236 222 211 210 180 147 238 257 258 224 198 194 188 174 181 201 201 202 219 196 209 229 193 180 196 202 204 201 195 210 206 198 209 212 209 206 199 203 208 205 210 216 202 202 216 222 207 218 241 250 248 233 175 163 213 217 218 226 213 185 191 198 184 157 126 110 101 85 83 84 82 81 81 80 81 82
239 241 246 247 239 231 237 272 293 271 268 283 230 171 161 177 159 157 225 249 223 175 180 181 164 160 173 192 194 202 222 176 185 226 201 181 192 205 208 206 201 204 208 206 207 203 200 207 205 199 206 207 204 212 203 200 213 223 211 210 228 241 250 255 214 176 197 218 223 219 206 199 196 195 177 147 136 134 120 109 104 95 91 89 84 82 80 78
232 242 246 244 242 241 247 265 271 261 277 317 200 159 144 154 178 195 228 248 176 129 146 158 156 165 180 187 191 202 214 194 182 200 194 184 195 212 215 213 207 203 211 214 213 205 191 208 218 199 202 214 200 204 210 206 207 220 222 211 218 233 243 260 243 195 190 213 229 216 201 204 209 193 176 154 154 152 130 124 122 107 102 94 84 84 79 79
239 245 244 243 242 243 245 249 253 257 268 282 219 189 166 161 197 196 204 240 213 147 145 153 159 176 184 182 189 196 202 207 189 182 189 184 194 212 217 217 218 208 211 215 220 217 189 201 230 212 198 212 204 202 211 209 201 213 232 223 215 226 239 265 255 203 187 202 230 225 207 211 222 186 174 176 165 148 136 135 133 122 112 99 87 85 80 80
249 247 242 238 233 241 243 238 249 250 245 248 211 198 200 191 217 204 200 250 250 150 145 160 168 177 185 184 184 189 199 211 192 177 187 182 187 204 208 211 220 211 207 212 218 220 201 193 222 227 206 205 205 203 206 207 199 206 231 226 210 212 232 263 251 205 193 198 224 227 213 214 222 182 187 185 152 137 139 141 138 132 120 109 98 90 87 82
250 246 241 235 233 244 244 240 267 256 221 218 207 202 200 192 217 225 215 243 228 153 155 173 182 182 186 187 181 185 197 208 195 180 184 184 183 198 206 203 205 201 202 207 206 211 212 197 201 222 213 200 204 203 200 205 198 203 221 217 207 199 204 239 234 207 203 208 223 223 213 209 205 23 23 145 130 125 131 135 135 131 120 110 99 90 89 84
246 245 241 237 237 242 243 245 278 305 197 198 204 211 206 198 212 226 230 225 138 163 172 175 185 188 185 185 184 187 194 203 197 181 180 190 187 193 208 209 208 207 203 205 198 193 208 205 198 207 202 195 210 211 196 198 196 202 213 210 208 198 192 216 220 209 207 211 223 220 208 188 114 40 54 99 112 114 121 124 124 120 113 108 103 99 99 94
250 252 248 245 243 243 245 248 259 275 193 193 200 204 206 216 219 219 231 245 157 185 209 188 182 184 186 188 186 185 192 204 199 180 176 192 194 190 204 210 210 212 206 203 202 191 200 205 195 198 190 187 214 226 208 196 195 203 211 213 212 204 200 213 218 218 214 216 226 221 212 137 109 101 88 100 108 110 115 116 113 111 111 110 107 108 108 104
261 256 255 254 251 245 242 239 229 219 212 197 198 207 205 212 222 217 234 267 220 189 222 211 183 180 186 189 191 188 192 206 199 185 180 193 199 191 195 206 208 209 202 199 207 196 205 209 186 189 196 191 209 227 216 200 199 201 207 211 209 209 212 206 212 233 235 233 235 216 133 51 106 120 108 107 110 113 116 115 115 114 113 112 109 111 111 106
261 259 254 247 247 240 227 220 212 207 208 203 204 212 214 221 262 304 304 311 307 221 234 216 182 180 186 186 191 188 193 209 199 189 189 196 201 196 192 201 207 208 200 195 207 192 202 211 181 185 203 200 203 218 216 209 201 194 209 213 201 209 224 205 192 224 264 263 229 120 104 114 124 122 122 123 119 122 125 121 122 121 116 114 112 114 112 105
264 260 251 240 236 226 211 205 199 199 206 220 222 222 228 248 298 324 331 334 326 303 272 220 185 185 186 187 192 183 190 208 197 186 191 195 199 197 195 198 204 211 201 186 207 198 200 216 187 188 206 201 197 212 222 220 205 196 213 210 194 206 227 227 187 201 216 244 220 123 134 156 151 144 144 139 134 135 135 130 127 126 123 121 117 119 114 101
274 265 261 246 225 204 196 193 187 193 205 221 236 244 248 262 292 307 314 328 323 304 275 226 219 217 193 189 191 181 187 202 194 188 190 192 197 195 196 195 201 213 203 183 198 207 204 226 189 183 204 205 191 203 225 220 209 216 216 200 197 209 219 219 211 206 203 225 223 137 146 169 164 154 159 154 149 145 139 134 132 130 128 124 120 120 113 98
275 266 260 227 206 188 181 182 183 195 209 217 229 242 254 266 276 282 293 306 297 271 238 220 256 251 220 201 190 179 188 200 193 191 193 192 192 188 194 196 195 210 208 190 196 206 204 237 192 175 195 206 188 194 222 207 202 221 218 196 208 223 216 210 199 211 215 219 220 163 158 179 143 154 171 164 151 146 142 137 134 130 128 124 119 118 111 100
264 259 226 190 190 177 168 174 187 201 213 226 233 241 255 274 280 281 284 285 283 275 276 355 305 280 278 235 202 181 189 201 194 193 197 189 181 182 192 197 190 201 207 198 197 201 204 234 212 178 189 201 192 198 215 198 188 213 217 198 206 217 230 226 195 198 223 224 210 185 170 143 67 122 179 165 147 143 142 137 131 126 124 119 114 113 108 104
250 256 258 194 179 163 161 174 200 207 215 231 238 247 257 277 289 288 286 276 270 241 146 246 263 267 304 287 234 190 184 199 196 193 195 189 190 189 194 198 191 191 202 203 197 191 195 214 212 187 187 199 199 202 215 209 190 193 211 209 205 206 220 228 207 199 213 227 224 206 159 129 45 5 191 159 146 140 136 132 126 120 119 115 112 112 114 116
264 254 237 196 166 159 169 188 209 210 225 237 238 247 254 279 287 282 283 272 257 216 172 199 279 286 301 293 272 217 184 195 198 195 198 195 199 203 196 199 195 187 193 202 189 179 190 217 205 194 194 206 203 200 215 224 207 195 204 213 207 202 208 224 224 205 207 223 227 216 102 106 10 354 84 124 131 131 129 127 123 121 120 118 116 116 118 120
261 272 264 208 171 173 191 209 210 214 229 237 244 250 250 267 274 273 283 275 246 223 229 266 301 314 300 284 284 263 211 200 196 197 204 199 196 200 198 197 195 189 189 194 179 168 176 220 205 194 198 211 208 198 203 219 222 210 202 210 217 211 201 213 230 204 196 228 219 106 90 99 0 4 103 109 113 122 125 125 125 126 126 121 117 118 119 115
239 252 277 219 189 193 212 220 215 227 238 239 246 245 233 238 253 260 286 293 272 280 320 301 307 310 289 274 274 278 264 225 189 189 203 202 189 197 204 198 196 191 185 178 163 156 175 212 203 191 191 203 207 201 196 205 219 220 204 207 220 219 208 213 225 196 179 235 224 164 103 119 47 58 110 112 115 121 122 122 125 127 128 122 118 119 118 112
299 223 181 196 194 199 226 243 255 282 279 273 265 250 227 236 254 255 283 294 293 308 307 300 344 298 278 275 274 271 273 268 207 183 198 200 176 195 213 199 190 189 185 176 162 157 179 203 199 197 196 192 202 207 196 194 206 215 210 210 217 223 223 220 215 195 195 222 226 177 111 120 118 113 114 116 120 120 118 118 120 125 126 122 120 120 116 110
323 199 167 172 184 206 240 253 261 267 280 300 290 267 248 246 253 243 271 284 279 285 291 283 287 281 269 274 277 264 269 277 241 179 189 194 166 199 222 199 186 186 180 174 164 153 177 207 203 208 203 196 226 223 202 195 204 203 205 212 215 220 229 234 226 223 211 193 177 107 134 137 138 132 125 125 127 123 121 120 121 126 126 121 121 120 114 110
266 215 173 161 177 209 232 240 243 248 258 278 289 292 283 268 265 259 270 277 260 266 283 265 253 262 262 272 271 265 299 290 227 171 180 192 171 197 220 203 191 177 160 165 166 152 184 209 192 192 207 218 282 247 213 203 207 203 202 214 215 212 224 235 224 20 238 186 96 121 139 139 145 146 134 130 132 129 127 127 127 130 128 125 125 121 115 111
242 260 178 175 204 217 234 238 237 242 247 249 274 301 298 283 280 277 270 277 278 276 270 251 244 247 256 274 270 268 316 312 199 140 136 176 168 194 215 196 179 145 150 172 174 163 198 205 172 147 196 219 262 282 252 227 216 206 200 215 224 217 222 231 107 59 44 119 132 138 139 133 138 144 134 130 130 125 125 127 129 132 130 129 128 121 116 110
267 297 300 258 269 278 277 264 248 247 251 260 285 286 284 278 273 275 280 284 282 281 273 266 267 262 255 255 251 260 312 316 162 108 74 142 177 200 208 187 164 152 178 183 170 174 204 191 164 158 184 212 207 268 315 320 272 218 205 211 226 230 30 38 82 83 82 105 124 129 126 120 126 133 124 115 110 113 121 126 129 132 131 129 124 117 112 107
282 303 316 305 289 295 295 295 288 264 255 274 281 275 283 279 274 277 278 271 270 277 277 266 266 272 265 249 245 240 247 279 327 75 106 154 208 209 210 194 166 167 195 192 161 166 190 147 139 142 169 203 182 136 87 41 30 117 187 175 99 60 52 61 85 91 91 100 112 116 114 111 117 117 111 106 105 117 127 127 128 130 128 124 117 112 111 105
333 326 330 329 320 327 315 302 307 292 271 254 267 288 300 281 284 300 290 272 263 261 264 264 266 274 274 271 270 249 230 308 13 33 165 170 186 285 242 228 191 179 196 197 161 162 177 148 122 107 122 204 178 131 106 90 70 61 50 41 48 63 66 72 70 72 112 124 121 118 121 130 130 122 120 124 128 130 129 128 127 126 124 120 114 112 111 102
351 352 358 357 319 324 317 298 311 311 297 282 274 290 294 280 285 298 292 273 253 244 247 256 266 272 259 257 282 288 308 52 33 303 216 130 29 356 322 294 268 206 187 165 125 167 175 156 143 146 175 204 175 138 119 115 100 76 44 23 42 78 82 75 45 21 102 133 137 133 138 142 140 135 133 133 131 126 124 124 125 127 125 119 114 111 105 94
Height
807 807 806 805 805 804 803 803 802 801 801 800 799 799 798 797 796 796 795 793 793 791 790 789 787 786 784 783 781 779 777 775 773 772 768 763 765 765 765 766 766 767 768 768 768 768 767 767 767 765 765 764 763 761 757 754 752 757 767 775 774 767 758 743 735 732 729 730 733 729 725 729 730 726 720 714 720 725 726 730 736 739 741 744 746 750 754 758
807 806 805 805 804 803 803 802 802 801 800 800 799 798 797 797 796 795 794 793 792 791 790 788 787 785 783 782 780 779 777 774 772 767 761 760 763 763 763 764 765 767 767 767 767 765 764 764 763 763 764 764 761 759 758 753 753 761 766 772 769 757 744 730 726 729 729 734 734 731 728 726 726 724 720 727 732 729 735 739 743 749 750 751 753 755 757 759
807 806 805 804 804 803 802 801 801 800 800 799 798 798 797 796 796 795 794 793 792 791 789 788 787 785 783 782 780 780 778 774 769 760 754 756 759 759 761 763 764 766 766 766 765 763 762 760 760 761 763 764 759 756 758 753 754 759 762 770 762 746 737 724 723 731 733 734 734 735 730 726 725 719 721 731 734 733 740 743 748 758 757 756 757 757 760 762
806 805 805 804 803 802 802 801 800 800 799 799 798 797 796 795 795 794 793 792 791 790 789 788 786 785 783 781 780 779 779 775 762 752 750 752 755 757 759 760 762 764 765 765 764 762 760 757 756 758 762 764 757 753 756 753 754 757 759 764 751 737 737 727 725 729 732 735 737 736 733 732 726 720 724 728 736 741 738 738 746 754 756 757 758 759 761 763
805 805 804 803 803 802 801 801 800 799 798 797 797 796 795 795 794 794 793 792 791 790 788 787 786 784 782 781 780 779 780 773 754 747 751 751 753 755 757 758 761 763 763 764 764 762 759 756 754 757 761 763 758 755 755 749 749 755 754 754 743 736 739 731 728 730 731 736 739 738 737 733 725 726 728 726 740 744 730 731 739 745 751 755 757 759 762 764
805 804 803 803 802 801 800 800 799 798 798 797 796 795 794 794 793 793 793 792 791 789 788 787 785 784 782 780 779 780 780 767 749 749 752 751 754 755 756 758 759 761 763 764 763 761 759 756 756 759 762 762 759 755 753 746 747 757 753 746 742 739 740 733 730 732 734 741 743 740 735 731 731 735 729 726 738 738 724 728 737 743 748 752 756 759 762 765
803 803 802 802 801 801 800 799 798 797 797 796 795 794 794 793 793 792 792 791 790 789 788 787 785 784 781 780 778 778 776 761 749 752 752 752 755 754 756 757 757 760 761 762 761 760 758 757 759 758 761 763 760 754 749 745 745 755 755 745 740 739 739 734 732 735 738 743 740 734 735 737 740 737 730 728 733 732 730 735 741 746 748 752 756 759 762 764
802 802 801 801 800 800 799 798 797 796 796 795 794 794 793 793 792 792 791 791 789 789 788 786 785 784 782 781 778 773 769 757 749 752 751 752 754 754 756 756 756 758 759 760 758 758 757 758 758 756 761 761 756 752 746 746 748 752 753 746 739 737 737 735 734 737 740 741 737 735 741 741 736 731 729 729 729 732 735 739 744 747 750 753 757 759 761 763
801 801 800 800 799 798 798 797 796 795 794 794 793 793 792 792 791 791 790 790 789 788 787 786 785 784 783 782 779 772 760 751 749 751 751 751 752 753 755 754 756 757 757 758 756 756 755 756 755 753 758 755 751 750 745 749 752 747 747 746 741 738 735 735 735 737 740 738 737 741 745 739 730 730 732 725 726 733 736 740 745 748 752 755 758 761 763 765
800 799 799 799 798 797 796 796 795 794 793 793 792 792 791 791 790 790 790 789 788 788 787 786 785 784 783 780 778 771 754 746 748 749 750 751 751 752 753 754 755 756 756 756 754 754 752 752 751 748 751 751 748 747 744 747 746 738 740 742 741 740 735 736 737 737 740 738 738 743 746 738 728 735 739 727 723 731 737 743 746 750 755 757 760 762 763 766
799 798 798 797 797 796 795 795 794 793 793 792 791 791 790 790 790 789 789 788 787 787 786 786 785 784 783 779 775 765 749 746 747 747 749 750 751 751 751 752 752 754 754 753 753 751 750 748 745 746 751 751 749 748 743 740 738 734 738 743 741 740 737 736 738 739 740 740 736 738 742 736 731 739 737 727 725 728 737 745 747 752 755 757 761 762 763 766
797 797 797 796 796 795 795 794 793 792 791 791 790 789 789 789 788 788 788 788 787 787 786 785 785 784 782 778 770 757 746 745 747 747 748 749 750 749 749 750 750 751 751 750 750 749 749 746 744 749 749 747 751 752 744 736 736 736 739 748 746 741 742 738 737 738 739 741 733 735 747 743 739 741 729 723 727 727 735 743 746 752 754 757 761 761 763 765
795 795 795 795 794 794 794 793 792 791 790 790 789 788 788 787 787 787 787 787 786 786 785 785 784 783 783 774 761 754 746 745 747 748 748 748 748 747 748 748 748 749 749 748 747 747 748 745 744 747 743 744 749 746 740 735 739 740 740 748 750 749 748 738 735 738 738 737 729 737 758 752 742 738 724 721 727 729 735 740 744 751 754 758 762 762 765 766
794 794 793 793 793 793 792 791 791 790 789 789 788 787 787 786 786 786 786 786 785 785 785 785 784 783 781 769 756 752 749 746 748 748 747 748 747 746 746 747 748 748 748 747 746 745 745 744 743 744 742 743 742 737 739 741 742 744 745 747 751 757 751 736 734 739 740 735 726 740 760 751 739 734 723 722 727 729 736 740 746 755 757 759 761 764 767 768
792 792 792 792 791 791 791 790 790 788 788 787 786 786 785 785 785 784 785 784 784 784 783 783 783 782 777 764 752 749 747 746 746 745 746 747 746 745 744 745 746 746 747 746 745 743 742 742 744 746 745 741 741 744 748 749 743 744 754 757 753 756 749 732 731 735 740 735 726 741 757 746 735 729 722 723 727 729 736 742 749 758 760 760 761 764 768 770
790 790 790 790 789 789 789 789 788 788 787 786 785 784 783 783 782 782 782 781 783 783 783 782 779 780 774 759 748 743 742 741 742 744 745 744 745 744 743 743 743 744 745 744 744 742 739 741 742 744 745 745 749 752 754 756 752 745 754 760 752 752 749 734 729 730 734 735 731 741 751 743 731 724 723 726 728 731 736 743 751 758 761 762 764 766 766 771
787 788 788 788 788 788 788 788 787 786 786 785 784 782 781 781 780 781 780 780 782 780 782 779 774 777 768 752 745 739 735 735 737 740 741 742 743 743 742 742 741 742 742 742 743 741 739 740 742 744 747 749 749 752 762 769 762 750 750 755 748 745 746 736 730 729 729 734 737 740 743 738 727 723 728 729 729 733 736 745 754 757 762 764 764 767 770 778
786 786 786 786 787 786 786 786 786 785 784 783 782 780 779 778 779 779 778 779 780 780 781 775 775 775 757 743 741 733 728 730 732 734 737 739 740 741 741 739 739 741 742 743 742 741 740 740 743 750 752 752 748 749 764 766 756 751 750 753 749 740 739 735 730 730 729 733 738 742 744 738 729 728 732 730 730 734 735 743 753 755 761 764 764 770 779 785
784 784 784 785 785 785 785 785 785 784 783 782 781 778 776 776 778 777 775 776 776 775 771 765 767 760 735 727 730 726 724 725 727 730 732 734 737 739 738 737 737 740 744 746 744 741 742 746 750 756 755 752 748 745 752 749 739 740 741 745 746 739 734 727 722 722 726 734 738 741 744 739 736 736 735 732 730 734 735 740 751 757 760 767 774 780 784 786
781 782 783 783 783 783 783 783 783 783 782 782 780 777 774 771 772 770 769 770 766 761 755 750 753 745 727 722 722 722 722 720 722 725 727 729 733 736 736 735 737 740 743 744 745 740 741 752 754 752 750 745 743 740 740 738 731 730 731 736 737 735 730 719 715 717 722 733 738 736 737 736 739 739 736 734 732 734 736 740 750 758 763 771 782 787 786 786
778 780 780 781 782 782 782 782 782 781 781 781 780 777 770 762 761 761 761 762 759 754 750 744 745 742 733 724 720 719 720 719 719 720 723 725 728 734 734 733 738 742 740 738 740 739 741 751 749 743 741 737 737 737 737 736 733 730 728 730 733 732 725 713 710 714 719 732 737 732 733 736 739 740 737 736 738 739 739 743 750 758 767 776 783 787 787 787
776 777 778 779 780 780 780 780 780 780 780 779 778 774 766 759 758 758 758 758 754 751 749 744 741 739 732 725 721 719 719 721 721 718 719 722 726 731 731 732 737 739 737 736 739 743 746 747 740 735 734 733 733 733 735 736 735 734 727 726 730 727 721 712 706 709 717 730 735 730 734 740 741 741 742 742 742 744 745 748 753 760 771 780 784 786 786 788
775 775 776 777 777 778 778 778 778 778 778 777 774 769 764 761 759 757 757 756 751 746 744 742 740 737 730 726 722 720 721 722 722 719 717 719 723 726 727 730 734 734 735 735 736 744 748 741 733 730 729 732 733 730 733 736 735 735 729 728 727 720 723 724 712 708 715 725 728 728 737 745 745 745 746 745 744 747 755 760 761 767 775 780 783 785 787 789
773 773 775 775 776 777 776 777 777 775 775 773 769 765 762 761 759 757 756 754 747 738 734 733 733 733 727 723 721 721 722 720 718 716 714 716 720 723 724 726 730 732 731 730 731 735 737 730 725 726 727 729 733 731 732 738 738 734 729 728 721 714 720 722 712 708 715 725 723 725 744 756 753 754 754 750 748 753 762 769 771 776 780 782 785 788 790 792
772 772 773 773 775 774 775 776 773 771 771 768 764 761 760 760 758 758 757 755 747 734 728 725 724 725 722 722 721 718 720 718 712 709 708 712 716 720 721 720 724 730 727 726 729 730 726 720 719 725 726 726 731 731 729 734 739 735 729 724 717 712 713 713 712 716 731 741 728 725 760 776 759 755 760 757 756 763 770 775 779 783 785 787 790 793 795 796
771 771 771 772 773 773 775 773 768 768 766 762 758 756 758 758 757 758 758 757 746 728 723 721 717 716 716 718 716 716 722 718 707 702 703 709 711 714 720 718 718 723 721 721 725 725 719 713 715 722 724 724 729 729 724 727 737 738 728 720 718 713 709 711 717 729 742 745 727 719 754 784 773 759 759 761 768 777 780 783 787 789 791 793 795 797 799 799
770 770 770 771 771 772 773 768 765 765 760 756 753 753 756 754 757 760 761 761 739 712 709 712 710 708 708 711 711 716 721 713 706 702 698 706 708 708 717 717 716 719 712 716 727 722 712 712 715 718 721 724 728 727 720 721 734 736 721 717 721 717 714 714 719 733 738 734 729 719 730 768 780 763 755 763 777 785 787 791 794 794 796 798 798 799 800 801
769 769 769 770 770 771 769 766 766 762 757 754 751 753 755 754 759 760 763 758 719 688 692 699 701 702 701 705 706 710 709 704 710 707 695 702 707 707 715 713 714 716 707 714 728 717 707 712 713 713 719 722 721 721 715 718 729 726 714 715 719 718 718 716 716 727 732 736 745 732 725 759 776 756 750 764 778 787 792 796 798 797 798 800 801 802 801 803
767 768 768 768 768 769 768 767 765 761 759 756 754 756 755 758 761 760 763 743 694 675 686 690 697 701 698 702 704 705 704 701 706 703 695 701 704 705 712 708 707 713 708 709 717 710 703 707 705 706 716 716 713 714 711 715 722 717 710 713 715 716 717 717 717 720 730 747 755 737 729 758 770 749 749 767 775 785 794 797 799 800 800 801 803 803 803 804
765 766 767 767 767 767 767 766 762 761 761 758 758 758 757 761 761 762 763 729 682 676 686 686 695 698 695 702 705 704 704 700 697 697 698 702 704 704 706 703 703 708 708 706 708 703 698 700 699 700 708 709 707 709 707 709 713 713 715 716 717 718 717 720 717 716 738 760 755 734 728 748 763 751 747 758 765 776 791 798 801 802 802 804 805 805 806 807
764 765 765 766 766 765 764 763 760 759 760 759 759 758 759 762 759 756 744 706 678 680 686 689 693 692 694 699 703 704 703 699 692 696 702 701 705 709 706 707 706 708 713 712 708 700 695 702 703 696 696 699 704 708 706 705 708 716 719 719 726 730 730 734 727 722 750 767 749 732 729 740 761 764 750 745 752 768 785 795 800 803 805 806 807 808 809 808
763 763 764 764 764 764 763 761 759 758 758 759 759 758 760 763 761 750 720 691 690 690 685 691 690 687 693 695 698 702 702 698 690 693 701 702 707 710 707 708 708 713 721 717 710 705 701 701 702 700 694 695 708 714 711 709 710 718 721 724 739 748 752 758 748 740 753 757 740 729 730 742 764 772 758 750 759 771 780 789 796 801 805 806 808 810 810 810
762 762 762 762 762 762 761 760 760 759 758 758 759 760 761 760 753 737 710 691 695 687 678 684 685 684 690 693 697 698 698 697 688 689 697 700 706 709 706 701 698 707 716 713 711 714 714 706 699 703 700 696 706 712 716 718 716 720 722 727 740 751 766 774 760 750 751 747 734 720 726 753 775 780 771 767 773 776 780 789 795 799 804 807 810 811 812 813
761 761 761 760 760 761 760 761 761 760 759 759 759 761 763 756 734 718 708 695 688 684 679 678 679 683 688 691 693 692 696 696 685 687 697 700 705 709 707 701 695 697 702 706 709 712 723 721 703 700 702 701 705 705 707 712 715 717 714 717 729 737 755 767 758 752 752 746 732 720 737 769 785 789 783 778 781 783 787 793 796 801 805 807 811 813 814 814
760 760 760 759 759 758 759 760 760 760 760 759 761 761 758 745 720 707 707 695 684 685 682 674 676 685 688 688 687 684 691 694 683 685 696 699 702 703 703 700 695 691 696 709 710 704 718 718 696 695 700 702 709 704 696 706 717 715 707 715 726 724 730 746 747 743 747 751 742 742 769 785 785 788 785 783 787 788 791 796 798 805 806 808 813 814 814 815
759 759 759 758 757 756 758 759 759 761 760 760 763 758 745 729 713 707 706 697 691 691 687 679 677 686 690 688 685 683 686 687 682 685 693 695 695 695 696 695 690 686 691 706 707 703 718 714 693 697 702 696 704 703 694 703 713 714 715 717 716 712 718 737 748 741 747 762 757 760 787 794 789 794 789 787 793 793 794 798 800 804 806 809 814 815 815 815
758 758 757 755 754 755 756 758 759 760 760 762 762 751 734 722 714 709 705 701 700 699 698 691 681 682 689 688 684 682 684 684 680 683 691 693 691 689 690 689 686 684 684 695 703 701 713 715 695 695 703 695 694 699 695 694 700 713 722 712 706 713 717 728 749 753 759 770 760 762 787 790 786 796 793 790 796 796 796 798 800 803 806 810 813 815 816 815
757 757 755 751 751 752 754 756 759 759 759 763 760 746 732 725 719 713 708 705 706 706 708 703 689 681 684 686 682 677 681 686 681 679 686 692 689 683 684 686 685 682 676 686 701 699 704 715 701 692 702 697 688 700 708 698 693 703 708 700 708 732 734 731 746 758 766 772 762 766 781 776 774 787 790 788 792 795 796 797 801 804 806 809 811 814 816 817
757 757 752 746 746 749 752 755 757 758 760 761 755 744 731 725 720 713 709 710 710 708 709 705 698 691 683 679 677 675 679 684 680 680 685 690 687 678 677 681 683 681 675 679 694 695 696 713 711 695 696 697 692 705 717 709 699 698 700 701 709 724 730 731 736 744 757 764 765 775 783 772 768 776 778 779 783 789 795 797 801 805 806 809 810 814 817 819
755 755 748 743 745 748 751 754 755 757 759 753 744 736 727 722 718 710 707 711 708 705 709 708 705 703 693 682 673 671 677 679 677 681 683 683 685 680 673 675 679 679 677 677 687 692 694 708 714 701 695 701 705 708 708 706 706 708 711 714 715 717 719 724 727 730 742 754 759 775 787 781 773 771 771 773 777 784 791 796 801 805 808 810 812 816 819 821
754 754 747 741 744 746 749 753 753 752 750 742 733 730 724 720 718 710 706 707 702 698 704 708 705 702 699 694 680 667 671 676 673 677 681 680 683 683 673 670 673 676 680 681 685 693 698 706 713 708 704 709 708 700 695 695 700 709 715 714 715 720 724 734 739 728 728 739 743 756 779 788 783 776 774 775 776 782 789 796 803 808 811 814 816 818 822 823
752 753 747 741 743 744 746 749 746 742 740 733 726 723 720 718 718 713 707 702 696 692 694 699 701 699 698 698 687 670 668 674 673 675 679 677 677 677 670 665 667 670 678 684 685 688 695 703 712 713 709 706 700 694 694 693 691 699 709 707 707 713 720 736 744 732 726 730 730 745 777 792 788 779 776 777 778 784 793 798 805 811 814 816 818 820 823 823
752 752 746 742 743 743 745 745 738 735 732 726 720 716 715 717 719 715 708 700 693 691 694 697 699 701 699 695 689 677 670 671 671 673 675 673 671 670 665 663 666 668 675 683 686 689 697 706 713 716 710 701 695 692 693 695 694 698 703 701 703 706 709 719 722 720 728 733 733 757 786 796 792 782 777 781 785 790 798 801 806 812 815 817 819 821 823 823
751 750 746 744 744 744 747 742 733 731 727 721 719 715 713 716 716 712 709 703 695 694 700 701 699 703 701 693 687 682 677 674 670 669 672 673 669 666 662 661 664 667 673 680 684 691 703 709 712 721 726 720 714 709 704 702 700 699 699 699 700 698 700 708 708 713 733 734 729 756 786 795 794 787 782 786 791 796 801 804 807 813 815 817 820 822 822 822
750 748 745 744 743 744 745 737 732 735 729 723 721 715 712 715 711 706 707 706 699 697 703 703 702 705 701 692 688 683 678 676 671 668 671 672 669 666 663 661 663 667 671 676 679 687 702 708 709 721 735 738 733 723 711 705 702 699 698 698 699 696 699 709 712 722 737 731 728 757 787 797 797 792 791 793 796 801 805 807 811 814 816 818 820 822 822 821
753 749 744 742 741 741 739 733 734 737 731 728 726 715 712 715 710 704 705 707 703 701 704 703 702 706 701 695 694 688 679 674 669 669 672 674 674 671 664 661 663 667 671 676 679 687 699 704 704 712 722 727 726 712 696 696 702 702 701 700 700 700 702 708 716 725 726 729 750 772 782 794 801 797 797 800 800 806 809 810 814 816 817 820 821 822 822 821
753 745 736 738 739 738 736 731 730 729 726 729 727 716 712 714 710 707 706 706 704 702 705 704 703 706 703 697 697 692 685 676 668 669 675 674 675 674 667 663 665 668 672 675 678 688 703 707 704 710 714 713 712 702 689 691 697 699 703 705 702 701 704 709 720 724 716 729 767 782 775 787 802 799 800 804 804 808 810 812 816 817 818 820 821 821 822 821
749 738 727 729 732 733 733 727 723 722 721 725 724 718 717 716 713 712 708 705 703 702 705 706 703 703 699 696 698 696 693 686 676 677 682 678 677 679 672 666 668 671 673 676 679 687 702 708 706 713 717 709 705 703 696 694 696 697 704 708 705 704 707 712 721 725 723 737 765 776 776 788 800 801 804 806 806 810 812 813 815 816 817 818 819 820 820 821
747 738 729 727 729 731 729 723 720 720 720 723 724 720 720 719 715 711 707 708 709 705 705 708 705 700 695 692 695 699 700 697 691 691 693 689 688 688 681 675 674 674 674 678 682 686 698 708 708 714 720 714 708 709 709 708 705 701 702 705 707 711 716 720 724 727 735 747 757 766 780 793 799 804 808 809 811 813 813 815 815 815 816 816 817 819 820 822
749 744 737 733 730 730 728 724 723 723 721 726 728 722 719 719 716 712 709 711 714 709 706 707 704 698 694 692 694 697 699 699 701 703 704 703 698 692 687 683 679 679 679 682 685 689 700 713 713 716 725 721 713 714 718 719 717 713 712 714 718 724 729 733 736 738 747 760 765 772 789 801 804 808 811 814 816 816 816 817 816 815 816 816 818 821 822 824
748 746 743 741 738 736 734 729 727 729 728 729 729 724 723 722 718 717 715 710 711 711 707 705 702 698 696 696 696 696 693 694 700 703 703 703 699 693 692 687 682 685 687 685 689 694 703 715 719 725 736 731 719 722 727 726 726 730 735 738 738 739 744 748 750 748 753 769 780 783 793 806 810 811 815 817 817 818 818 818 817 817 817 818 821 823 825 827
746 745 743 746 747 745 741 735 733 737 734 731 732 732 732 727 721 724 724 713 706 706 704 702 702 701 700 701 702 698 693 693 697 699 697 695 693 694 695 690 684 686 688 691 698 699 703 717 728 735 743 735 721 723 730 731 738 749 753 751 749 749 751 758 763 760 758 766 773 775 785 802 809 811 814 818 819 820 820 818 819 820 819 821 824 826 829 832